Terminal Aerodrome Forecast
Issued by NWS

Home | Current Version | Previous Version | Text Only | Print | Product List | Glossary On
Versions: 1 2 3 4 5 6 7 8 9 10 11 12 13 14 15
000
FTUS43 KIND 010500
TAFLAF
TAF
KLAF 010536Z 0106/0206 17005KT 2SM -SN BR SCT005 BKN012 OVC025
     FM010900 11007KT 1 1/2SM -SN BR OVC004
      TEMPO 0109/0112 3/4SM -SN BR
     FM011600 10011KT 1/2SM SN VV004
     FM012200 08010KT 1SM -SN BR OVC005
     FM020200 36014G21KT 1 1/2SM -SN OVC007
      AMD LTD TO CLD VIS AND WIND TIL 011400=

USA.gov is the U.S. government's official web portal to all federal, state and local government web resources and services.